Regional Weather Roundup
Issued by NWS

Home | Current Version | Previous Version | Graphics & Text | Print | Product List | Glossary On
Versions: 1 2 3 4 5 6 7 8 9 10 11 12 13 14 15 16 17 18 19 20 21 22 23 24 25 26 27 28 29 30 31 32 33 34 35 36 37 38 39 40 41 42 43 44 45 46 47 48 49 50
000
ASUS43 KDMX 012204
RWRIA

WEATHER ROUNDUP FOR IOWA
NATIONAL WEATHER SERVICE DES MOINES IA
  ISSUED BY NWS QUAD CITIES IA IL
400 PM CST SUN MAR 01 2015

NOTE: "FAIR" INDICATES FEW OR NO CLOUDS BELOW 12,000 FEET WITH NO
SIGNIFICANT WEATHER AND/OR OBSTRUCTIONS TO VISIBILITY.

* - THESE STATIONS ARE NOT NWS STATIONS...THUS NOT UNDER NWS
QUALITY CONTROL.  THEY ALSO DO NOT REPORT WEATHER SUCH
AS PRECIPITATION OR FOG.

IAZ001>003-012>014-020>022-031>034-043>046-012300-
   NORTHWEST IOWA

CITY           SKY/WX    TMP DP  RH WIND       PRES   REMARKS
CARROLL *      SUNNY     30  18  59 NW13      30.35R WCI  20
CHEROKEE *     CLOUDY    32  19  57 W9        30.32S WCI  24
DENNISON *     SUNNY     30  16  55 W5G12     30.33R WCI  25
LE MARS *      SUNNY     36  14  41 NW12G22   30.32S WCI  27
ORANGE CITY *  SUNNY     36  14  41 NW17G26   30.29S WCI  25
SHELDON *      MOSUNNY   32  14  47 NW18      30.28S WCI  20
SIOUX CITY     PTSUNNY   39  15  37 NW15      30.33S WCI  31
SPENCER        MOSUNNY   32  16  51 NW18      30.29S WCI  20
STORM LAKE *   CLOUDY    30  18  59 W13G18    30.32S WCI  20
$$

IAZ055>058-069>071-079>083-090>094-012300-
   SOUTHWEST IOWA

CITY           SKY/WX    TMP DP  RH WIND       PRES   REMARKS
ATLANTIC *     SUNNY     34  19  55 NW8       30.34S WCI  27
AUDUBON *      SUNNY     32  18  55 NW8       30.35S WCI  25
CLARINDA *     SUNNY     37  16  41 NW9       30.37S WCI  31
COUNCIL BLFS * SUNNY     37  18  44 W9        30.33S WCI  31
CRESTON *      SUNNY     34  18  51 NW10      30.34S WCI  26
HARLAN *       SUNNY     34  21  60 NW10      30.38S WCI  26
LAMONI         SUNNY     35  21  56 NW10      30.33F WCI  27
RED OAK *      SUNNY     36  18  48 NW8       30.36S WCI  29
SHENANDOAH *   SUNNY     37  16  41 N8        30.37S WCI  31
$$

IAZ047>049-059>061-072>074-084-012300-
   CENTRAL IOWA

CITY           SKY/WX    TMP DP  RH WIND       PRES   REMARKS
AMES           SUNNY     30  15  53 NW13      30.35R WCI  20
ANKENY *       SUNNY     30  18  59 W12       30.35S WCI  21
BOONE *        SUNNY     28  16  59 W16       30.32S WCI  17
CHARITON *     SUNNY     34  19  55 NW9G16    30.34S WCI  26
DES MOINES     MOSUNNY   33  16  49 NW13      30.35R WCI  24
GRINNELL *     CLEAR     29  20  67 W13       30.34R WCI  19
KNOXVILLE *    SUNNY     32  18  55 NW9       30.32F WCI  24
MARSHALLTOWN   SUNNY     26  15  63 NW14      30.33R WCI  14
NEWTON *       SUNNY     30  19  64 NW12      30.34R WCI  21
PELLA *        PTSUNNY   34  23  64 NW9       30.35S WCI  27
PERRY *          N/A     32  18  56 NW12      30.35R WCI  23
$$

IAZ004>006-015-016-023>025-035-036-012300-
   NORTH CENTRAL IOWA

CITY           SKY/WX    TMP DP  RH WIND       PRES   REMARKS
ALGONA *       PTSUNNY   28  16  59 W18G28    30.31S WCI  16
CLARION *      PTSUNNY   28  19  69 W16       30.31F WCI  17
ESTHERVILLE    SUNNY     28  18  66 W16       30.28S WCI  16
FORT DODGE *   MOSUNNY   28  16  59 W10G16    30.34S WCI  19
MASON CITY     SUNNY     25  14  63 W15       30.30S WCI  13
FOREST CITY *  FAIR      28  14  54 W13       30.29S WCI  18
WEBSTER CITY * MOSUNNY   28  18  64 W14       30.31S WCI  17
IOWA FALLS *   FAIR      27  16  63 W12       30.33S WCI  17
$$

IAZ007>011-017>019-026>030-037>042-050>054-066-012300-
   NORTHEAST IOWA

CITY           SKY/WX    TMP DP  RH WIND       PRES   REMARKS
CEDAR RAPIDS   MOSUNNY   27  20  75 W15       30.31S WCI  15
CHARLES CITY * SUNNY     23  12  63 W13G20    30.30S WCI  11
CLINTON *      PTSUNNY   25  18  74 W14       30.34S WCI  13
DECORAH *      SUNNY     21   7  53 W13G21    30.27R WCI   9
DUBUQUE        PTSUNNY   25  17  72 W17       30.27R WCI  12
MONTICELLO *   MOSUNNY   27  19  74 W15G21    30.30S WCI  15
OELWEIN *      SUNNY     23  12  63 W15       30.31R WCI  10
WATERLOO       SUNNY     24  11  57 NW12      30.32R WCI  13
$$

IAZ064-065-067-068-078-012300-
   EAST CENTRAL IOWA

CITY           SKY/WX    TMP DP  RH WIND       PRES   REMARKS
DAVENPORT      MOSUNNY   25  16  68 W15       30.33S WCI  13
IOWA CITY      PTSUNNY   28  19  69 W17       30.35S WCI  16
MT. PLEASANT * MOSUNNY   28  17  63 W8        30.35S WCI  20
MUSCATINE *    MOSUNNY   28  18  64 W13       30.36S WCI  18
QUAD CITIES    SUNNY     27  15  61 W13       30.33R WCI  16
$$

IAZ062-063-075>077-085>089-095>099-012300-
   SOUTHEAST IOWA

CITY           SKY/WX    TMP DP  RH WIND       PRES   REMARKS
BURLINGTON     CLOUDY    27  18  69 NW9       30.34F WCI  18
FAIRFIELD *    MOSUNNY   28  18  64 W9        30.35S WCI  20
FORT MADISON * MOSUNNY   27  19  74 NW9       30.36S WCI  17
KEOKUK *       CLOUDY    28  19  69 W10       30.35S WCI  19
OSKALOOSA *    FAIR      31  21  65 NW12      30.34S WCI  22
CENTERVILLE *  FAIR      32  21  64 W8        30.35F WCI  25
OTTUMWA        MOSUNNY   32  20  61 W7        30.34S WCI  26
WASHINGTON *   PTSUNNY   30  23  74 W9        30.35R WCI  22
$$

ABBREVIATIONS USED IN REMARKS
   TC - TEMPERATURES IN CELSIUS
  WCI - WIND CHILL INDEX
   HX - HEAT INDEX
  VSB - VISIBILITY
$$


USA.gov is the U.S. government's official web portal to all federal, state and local government web resources and services.